x

Erie International Airport (72526) Weather Station

2:05pm - Sat 13th Feb 2016 All times are CST. -6 hours from GMT.

  • Wind
    23mph, 33mph gusts
  • Air Temp 10°f
  • Sea Pressure 1027.8mb
  • Erie International Airport
  • Erie International Airport

More Historic Weather Station data

Upgrade to MSW Pro to gain access to the past 30 days of data for over 8000 Wavebouys and Weather Stations around the globe.

Join Pro

Comparision Forecast

View Surf forecast
   
Sat 02/13 2:05pm 23 33 mph 1027.8mb 10f
1:58pm 22 31 mph 1027.4mb 10f
1:51pm 17 24 mph 1027.4mb 10f
1:20pm 17 22 mph 1027.4mb 10f
1:12pm 15 22 mph 1027.4mb 10f
1:05pm 12 22 mph 1027.4mb 10f
1:03pm 14 22 mph 1027.4mb 10f
12:58pm 14 23 mph 1027.8mb 10f
12:51pm 16 23 mph 1027.8mb 10f
12:07pm 14 21 mph 1027.8mb 9f
11:51am 15
mph
1028.1mb 9f
10:51am 10 18 mph 1028.4mb 7f
9:51am 13 22 mph 1028.1mb 7f
8:51am 13 20 mph 1027.8mb 7f
8:03am 13 22 mph 1027.1mb 5f
7:51am 17 25 mph 1027.1mb 7f
6:51am 18 29 mph 1026.1mb 5f
5:51am 16 32 mph 1024.7mb 7f
4:51am 17 32 mph 1023.7mb 7f
4:11am 15 29 mph 1022.7mb 9f
3:51am 17 28 mph 1022mb 10f
2:56am 17 28 mph 1020.7mb 10f
2:47am 17 28 mph 1020.3mb 12f
2:46am 21 28 mph 1020.3mb 12f
2:37am 15 28 mph 1020mb 13f
2:21am 18 37 mph 1019.6mb 12f
2:01am 23 31 mph 1019.6mb 14f
1:51am 18 31 mph 1019.6mb 14f
1:48am 22 31 mph 1019.6mb 14f
1:19am 22 29 mph 1019.3mb 14f
12:51am 22 31 mph 1019mb 16f
Fri 02/12 11:51pm 16 28 mph 1018mb 16f
11:02pm 15 36 mph 1017.3mb 16f
10:51pm 22 33 mph 1016.9mb 18f
10:34pm 21 32 mph 1016.6mb 18f
10:29pm 18 38 mph 1016.6mb 16f
10:11pm 18 30 mph 1015.9mb 18f
10:01pm 21 32 mph 1015.6mb 18f
9:51pm 20 31 mph 1015.6mb 19f
9:24pm 17 30 mph 1014.9mb 19f
9:08pm 18 29 mph 1014.6mb 19f
8:51pm 20 31 mph 1014.2mb 21f
8:29pm 18 32 mph 1014.2mb 19f
7:51pm 18 29 mph 1013.9mb 21f
7:11pm 16 27 mph 1013.5mb 21f
6:58pm 18 30 mph 1013.2mb 21f
6:51pm 17 24 mph 1013.2mb 21f
6:18pm 17 27 mph 1012.9mb 19f
6:05pm 10 17 mph 1012.5mb 19f
5:51pm 14 21 mph 1012.5mb 19f
5:48pm 9 20 mph 1012.2mb 19f
5:27pm 16
mph
1011.9mb 19f
5:10pm 10
mph
1012.2mb 19f
4:51pm 8
mph
1012.2mb 19f
4:11pm 15
mph
1012.2mb 19f
3:59pm 15
mph
1012.2mb 21f
3:51pm 15
mph
1012.2mb 21f
2:51pm 13
mph
1012.5mb 21f
1:51pm 13 24 mph 1013.2mb 21f
12:51pm 15 24 mph 1014.2mb 21f
11:51am 15 28 mph 1015.2mb 21f
10:51am 23 29 mph 1016.6mb 19f
10:36am 21
mph
1016.9mb 20f
9:51am 15
mph
1017.3mb 19f
8:51am 14
mph
1018mb 18f
8:05am 13
mph
1018.3mb 16f
7:51am 15
mph
1018.6mb 16f
7:31am 15
mph
1019mb 16f
7:09am 14
mph
1019.3mb 14f
7:01am 14
mph
1019.3mb 14f
6:51am 15
mph
1019.6mb 14f
6:45am 15
mph
1019.6mb 14f
6:23am 12
mph
1019.6mb 14f
6:14am 12
mph
1019.6mb 14f
6:07am 13
mph
1019.6mb 14f
5:58am 13
mph
1020mb 14f
5:51am 12
mph
1020mb 14f
5:05am 14
mph
1020mb 14f
4:51am 14
mph
1020mb 14f
4:18am 13
mph
1020.3mb 14f
3:54am 10
mph
1020.3mb 14f
3:51am 10
mph
1020.3mb 14f
3:37am 13
mph
1020.3mb 14f
3:28am 10
mph
1020.3mb 14f
3:03am 10
mph
1020.7mb 14f
2:59am 13
mph
1020.7mb 14f
2:51am 12
mph
1020.7mb 14f
1:51am 9
mph
1022mb 12f
12:51am 9
mph
1022.4mb 12f
Thu 02/11 11:51pm 12
mph
1023.4mb 16f
10:51pm 6
mph
1023.7mb 18f
9:51pm 6
mph
1024mb 18f
8:51pm 10
mph
1024.4mb 18f
7:51pm 7
mph
1024mb 18f
6:51pm 12 18 mph 1024mb 18f
5:51pm 9 20 mph 1023.7mb 18f
4:51pm 10 18 mph 1023mb 18f
3:51pm 16 23 mph 1022.4mb 18f
2:51pm 15 24 mph 1021.7mb 18f
2:32pm 14 24 mph 1021.3mb 18f
2:25pm 15 25 mph 1021mb 18f
1:51pm 17 27 mph 1020.7mb 18f
1:25pm 12 27 mph 1020.7mb 18f
1:14pm 17 25 mph 1020.3mb 18f
12:51pm 17 24 mph 1020.3mb 18f
11:51am 18 29 mph 1019.6mb 18f
11:29am 15 24 mph 1019.6mb 18f
11:06am 13 27 mph 1019.6mb 18f
10:51am 17 27 mph 1019.3mb 18f
10:31am 16 24 mph 1019.3mb 18f
10:24am 14 24 mph 1019.3mb 18f
10:03am 17 22 mph 1019mb 18f
9:51am 18 28 mph 1019mb 18f
9:02am 17 24 mph 1018.3mb 16f
8:51am 16 29 mph 1018.3mb 16f
8:37am 14 24 mph 1018mb 16f
8:28am 14 27 mph 1018mb 16f
7:59am 15 23 mph 1017.3mb 16f
7:51am 15 24 mph 1017.3mb 16f
7:04am 12 21 mph 1016.6mb 16f
6:51am 14 24 mph 1016.6mb 16f
6:31am 13 27 mph 1015.9mb 16f
6:13am 20 30 mph 1015.6mb 16f
6:00am 20 28 mph 1015.6mb 18f
5:51am 18 29 mph 1015.2mb 18f
5:13am 17 25 mph 1014.9mb 18f
4:51am 15 30 mph 1014.6mb 16f
3:51am 16 29 mph 1014.2mb 16f
3:04am 18 27 mph 1013.9mb 16f
2:51am 18 27 mph 1013.5mb 16f
2:47am 16 30 mph 1013.5mb 16f
2:32am 17 30 mph 1013.5mb 16f
1:51am 15 23 mph 1013.2mb 16f
12:51am 18 29 mph 1012.5mb 16f
Wed 02/10 11:51pm 21 28 mph 1012.5mb 18f
11:00pm 18 28 mph 1012.2mb 18f
10:51pm 17 25 mph 1012.2mb 18f
10:26pm 18 29 mph 1012.2mb 19f
10:08pm 17 24 mph 1011.9mb 18f
9:51pm 17 25 mph 1011.9mb 18f
9:48pm 17 25 mph 1011.9mb 18f
9:26pm 17 25 mph 1011.9mb 18f
9:18pm 14 22 mph 1011.9mb 19f
8:51pm 16 23 mph 1011.9mb 19f
7:51pm 15 23 mph 1011.5mb 19f
6:51pm 14 25 mph 1011.5mb 19f
5:51pm 17 29 mph 1011.2mb 19f
5:26pm 18 28 mph 1011.2mb 19f
5:15pm 21 32 mph 1010.8mb 19f
5:12pm 16 31 mph 1010.8mb 20f
5:07pm 14 31 mph 1010.8mb 19f
5:00pm 15 28 mph 1010.8mb 19f
4:51pm 18 28 mph 1010.8mb 19f
4:48pm 16 24 mph 1010.5mb 19f
4:33pm 17 25 mph 1010.5mb 19f
4:31pm 15 23 mph 1010.5mb 19f
4:23pm 15 28 mph 1010.2mb 19f
4:16pm 20 28 mph 1010.2mb 19f
3:51pm 14 24 mph 1010.2mb 19f
3:35pm 15 30 mph 1009.8mb 19f
3:26pm 18 27 mph 1009.8mb 19f
3:10pm 18 30 mph 1009.5mb 19f
2:51pm 16 32 mph 1009.1mb 19f
2:14pm 20 28 mph 1008.5mb 21f
2:04pm 21 30 mph 1008.5mb 21f
1:51pm 18 28 mph 1008.1mb 21f
1:07pm 18 29 mph 1007.5mb 23f
12:51pm 18 29 mph 1007.1mb 23f
12:18pm 15
mph
1006.8mb 25f
12:13pm 13 22 mph 1006.8mb 25f
12:07pm 14 24 mph 1006.8mb 23f
11:57am 13 21 mph 1006.8mb 23f
11:51am 13 22 mph 1006.8mb 23f
11:47am 12 22 mph 1006.8mb 21f
11:30am 10
mph
1006.8mb 23f
10:51am 6
mph
1006.8mb 23f
10:48am 7
mph
1006.8mb 23f
10:19am 12
mph
1007.1mb 23f
10:03am 10
mph
1007.1mb 23f
9:51am 13 22 mph 1006.8mb 25f
9:48am 16 22 mph 1006.8mb 25f
9:35am 13 22 mph 1006.8mb 24f
9:16am 13 23 mph 1006.4mb 25f
8:51am 14
mph
1006.4mb 25f
8:27am 14 23 mph 1006.1mb 25f
8:13am 12 21 mph 1006.1mb 25f
7:51am 16 24 mph 1005.8mb 25f
7:28am 14 23 mph 1005.8mb 25f
7:15am 17 24 mph 1005.8mb 27f
6:59am 17 25 mph 1005.8mb 27f
6:51am 14 22 mph 1005.4mb 27f
6:26am 18 27 mph 1005.4mb 25f
6:17am 18 25 mph 1005.4mb 25f
5:59am 18 27 mph 1005.4mb 25f
5:51am 10 23 mph 1005.1mb 25f
5:45am 14 24 mph 1005.1mb 25f
5:28am 14 23 mph 1005.1mb 25f
5:22am 16 24 mph 1004.7mb 25f
5:14am 17 24 mph 1004.7mb 25f
4:56am 17 25 mph 1004.7mb 25f
4:51am 14 24 mph 1004.7mb 27f
4:49am 16 24 mph 1004.7mb 27f
4:23am 15 25 mph 1004.4mb 27f
4:17am 14 23 mph 1004.4mb 27f
4:08am 20 27 mph 1004.4mb 27f
3:51am 20 29 mph 1004.1mb 27f
3:49am 16 29 mph 1004.1mb 27f
3:12am 16 27 mph 1003.7mb 27f
2:51am 17 28 mph 1003.4mb 27f
2:35am 16 23 mph 1003.4mb 27f
1:51am 18 30 mph 1003.4mb 28f
1:37am 20 27 mph 1003.4mb 28f
1:28am 18 29 mph 1003.4mb 28f
1:15am 14 27 mph 1003.4mb 28f
1:07am 16 27 mph 1003.4mb 28f
12:51am 15 28 mph 1003.1mb 28f
12:35am 16 27 mph 1003.1mb 28f
12:11am 14 24 mph 1003.1mb 28f
Tue 02/09 11:58pm 18 31 mph 1003.1mb 28f
11:51pm 17 25 mph 1003.1mb 28f
11:21pm 17 27 mph 1003.1mb 28f
11:12pm 18 25 mph 1003.1mb 28f
11:10pm 16 29 mph 1003.1mb 28f
11:02pm 17 29 mph 1003.1mb 28f
10:51pm 17 28 mph 1003.1mb 28f
10:34pm 17 24 mph 1003.1mb 28f
10:20pm 16 25 mph 1002.7mb 28f
9:51pm 16 29 mph 1002.7mb 28f
9:35pm 16 27 mph 1003.1mb 28f
9:27pm 13 25 mph 1003.1mb 28f
9:18pm 15 25 mph 1003.1mb 28f
9:09pm 15 25 mph 1003.1mb 28f
8:51pm 14 29 mph 1003.1mb 28f
8:33pm 18 30 mph 1003.1mb 28f